Hayward, CA

5:47 AM PDT on July 22, 2017 (GMT -0700)
Hayward Executive

Weather History for KHWD - June, 2014

Change the Weather History Date:

Sunday, June 8, 2014

  Actual Average Record
Temperature  
Mean Temperature 71 °F 63 °F  
Max Temperature 89 °F 71 °F 91 °F (2015)
Min Temperature 52 °F 54 °F 50 °F (1999)
Degree Days  
Heating Degree Days 0    
Month to date heating degree days 38  
Since 1 June heating degree days 38  
Since 1 July heating degree days 2138  
Cooling Degree Days 6    
Month to date cooling degree days 6  
Year to date cooling degree days 56  
Since 1 June cooling degree days 6  
Growing Degree Days 19 (Base 50)    
Moisture  
Dew Point 55 °F    
Average Humidity 65    
Maximum Humidity 100    
Minimum Humidity 30    
Precipitation  
Precipitation 0.00 in - 0.23 in (2005)
Month to date precipitation 0.00  
Year to date precipitation 4.68  
Since 1 July precipitation 5.88  
Sea Level Pressure  
Sea Level Pressure 29.80 in    
Wind  
Wind Speed 5 mph (WNW)    
Max Wind Speed 18 mph    
Max Gust Speed 22 mph    
Visibility 9 miles    
Events      
T = Trace of Precipitation, MM = Missing Value Source: NWS Daily Summary

Daily Weather History Graph

Daily Weather History Graph

Search for Another Location

Airport or City:

Trip Planner

Search our weather history database for the weather conditions in past years. The results will help you decide how hot, cold, wet, or windy it might be!

Date:

Astronomy

Jun. 08, 2014 Rise Set
Actual Time 5:46 AM PDT 8:28 PM PDT
Civil Twilight 5:15 AM PDT 8:59 PM PDT
Nautical Twilight 4:37 AM PDT 9:38 PM PDT
Astronomical Twilight 3:53 AM PDT 10:22 PM PDT
Moon 3:57 PM PDT (6/8) 2:37 AM PDT (6/8)
Length of Visible Light 15h 43m
Length of Day
14h 41m
Waxing Gibbous, 78% of the Moon is Illuminated
Jun 8
Waxing Gibbous
Jun 12
Full
Jun 19
Last Quarter
Jun 27
New
Jul 5
First Quarter

Hourly Weather History & Observations

Time (PDT) Temp. Heat Index Dew Point Humidity Pressure Visibility Wind Dir Wind Speed Gust Speed Precip Events Conditions
12:54 AM 53.1 °F - 51.1 °F 93% 29.84 in 8.0 mi NNW 3.5 mph - N/A   Clear
1:54 AM 53.1 °F - 52.0 °F 96% 29.84 in 7.0 mi NW 3.5 mph - N/A   Clear
2:54 AM 52.0 °F - 52.0 °F 100% 29.83 in 8.0 mi Calm Calm - N/A   Clear
3:54 AM 52.0 °F - 51.1 °F 97% 29.82 in 8.0 mi Calm Calm - N/A   Clear
4:54 AM 53.1 °F - 52.0 °F 96% 29.83 in 9.0 mi Calm Calm - N/A   Clear
5:54 AM 53.1 °F - 51.1 °F 93% 29.83 in 10.0 mi Calm Calm - N/A   Clear
6:54 AM 55.0 °F - 53.1 °F 93% 29.85 in 10.0 mi Calm Calm - N/A   Clear
7:54 AM 60.1 °F - 55.0 °F 83% 29.85 in 8.0 mi Calm Calm - N/A   Clear
8:54 AM 64.0 °F - 55.9 °F 75% 29.86 in 7.0 mi Calm Calm - N/A   Clear
9:54 AM 68.0 °F - 57.0 °F 68% 29.85 in 8.0 mi Calm Calm - N/A   Clear
10:54 AM 73.0 °F - 57.9 °F 59% 29.83 in 9.0 mi WNW 4.6 mph - N/A   Clear
11:54 AM 78.1 °F - 55.9 °F 46% 29.82 in 10.0 mi WNW 8.1 mph - N/A   Clear
12:54 PM 84.0 °F 83.0 °F 55.9 °F 38% 29.80 in 10.0 mi WNW 9.2 mph - N/A   Clear
1:54 PM 84.9 °F 84.8 °F 60.1 °F 43% 29.79 in 10.0 mi WNW 10.4 mph - N/A   Clear
2:54 PM 84.9 °F 83.2 °F 53.1 °F 33% 29.78 in 10.0 mi NW 16.1 mph - N/A   Clear
4:54 PM 86.0 °F - 51.1 °F 30% 29.75 in 10.0 mi WNW 15.0 mph - N/A   Clear
5:54 PM 84.0 °F - 50.0 °F 31% 29.74 in 10.0 mi WNW 16.1 mph - N/A   Clear
6:54 PM 78.1 °F - 55.0 °F 45% 29.74 in 10.0 mi WNW 6.9 mph - N/A   Clear
7:54 PM 73.9 °F - 61.0 °F 64% 29.75 in 10.0 mi West 6.9 mph - N/A   Clear
8:54 PM 68.0 °F - 59.0 °F 73% 29.76 in 10.0 mi West 5.8 mph - N/A   Clear
9:54 PM 66.0 °F - 57.9 °F 75% 29.77 in 10.0 mi Calm Calm - N/A   Clear
10:54 PM 64.0 °F - 55.9 °F 75% 29.77 in 10.0 mi NW 3.5 mph - N/A   Clear
11:54 PM 60.1 °F - 55.0 °F 83% 29.77 in 10.0 mi NW 3.5 mph - N/A   Clear